EW6987 Weather Reports


time (UTC)temp
F
wind
direction
speed
knots
gust
knots
rain 1hr
in
rain 24hr
in
rain mn
in
humidity
%
barometer
mb
20260503224551 62 214 6.1 13.9 0.00 0.00 0.00 42 1016.9
20260503223050 62 224 7.8 17.4 0.00 0.00 0.00 40 1017.0
20260503221556 62 233 6.1 15.6 0.00 0.00 0.00 39 1017.0
20260503220051 63 225 7.0 13.0 0.00 0.00 0.00 39 1017.1
20260503214554 62 227 6.1 16.5 0.00 0.00 0.00 39 1017.2
20260503213046 63 195 4.3 15.6 0.00 0.00 0.00 39 1017.2
20260503211544 63 200 5.2 15.6 0.00 0.00 0.00 41 1017.2
20260503210045 63 197 7.8 20.0 0.00 0.00 0.00 38 1017.3
20260503204541 63 235 7.0 17.4 0.00 0.00 0.00 38 1017.4
20260503203057 63 155 8.7 17.4 0.00 0.00 0.00 39 1017.7
20260503201540 63 202 5.2 14.8 0.00 0.00 0.00 41 1017.7
20260503200038 63 199 6.1 14.8 0.00 0.00 0.00 40 1017.9
20260503194542 63 194 7.8 15.6 0.00 0.00 0.00 37 1018.0
20260503193038 63 228 6.1 20.9 0.00 0.00 0.00 40 1018.2
20260503191540 63 176 7.8 16.5 0.00 0.00 0.00 39 1018.5
20260503190039 63 198 8.7 15.6 0.00 0.00 0.00 39 1018.7
20260503184530 63 237 5.2 17.4 0.00 0.00 0.00 40 1019.0
20260503183029 63 183 7.8 16.5 0.00 0.00 0.00 38 1019.1
20260503181525 62 168 6.1 14.8 0.00 0.00 0.00 41 1019.4
20260503180023 62 153 5.2 20.0 0.00 0.00 0.00 39 1019.7
20260503174521 63 276 5.2 15.6 0.00 0.00 0.00 42 1019.6
20260503173117 62 224 8.7 18.2 0.00 0.00 0.00 43 1019.8
20260503171528 61 209 4.3 14.8 0.00 0.00 0.00 48 1020.1
20260503170110 61 260 3.5 17.4 0.00 0.00 0.00 48 1020.3
20260503081619 41 132 1.7 4.3 0.00 0.03 0.00 77 1022.0
20260503071626 42 192 1.7 6.1 0.00 0.08 0.00 73 1022.0
20260503060119 42 193 0.9 6.1 0.00 0.08 0.00 70 1022.3
20260503054526 42 195 1.7 3.5 0.00 0.08 0.00 72 1022.4
20260503053105 41 191 0.9 3.5 0.00 0.08 0.00 73 1022.5
20260503051521 41 193 0.9 3.5 0.00 0.08 0.00 73 1022.5
20260503050107 41 204 0.9 2.6 0.00 0.08 0.00 73 1022.6
20260503044510 41 224 0.0 2.6 0.00 0.08 0.00 72 1022.6
20260503043051 41 212 0.0 0.9 0.00 0.08 0.00 71 1022.6
20260503041501 41 205 0.0 0.0 0.00 0.08 0.00 68 1022.6
20260503040053 42 205 0.0 0.0 0.00 0.08 0.00 67 1022.7
20260503034539 42 182 0.0 1.7 0.00 0.08 0.08 66 1022.8
20260503033127 43 209 0.0 1.7 0.00 0.08 0.08 65 1022.7
20260503031544 44 207 0.0 1.7 0.00 0.08 0.08 63 1022.8
20260503030127 45 201 0.9 2.6 0.00 0.08 0.08 59 1022.8
20260503024541 45 211 0.9 1.7 0.00 0.08 0.08 58 1022.9
20260503023129 45 232 0.0 2.6 0.00 0.08 0.08 59 1023.0
20260503021545 45 228 0.0 1.7 0.00 0.08 0.08 58 1023.0
20260503020001 45 213 0.9 3.5 0.00 0.08 0.08 57 1022.9
20260503014558 45 232 0.9 3.5 0.00 0.08 0.08 56 1022.9
20260503013012 45 219 0.9 3.5 0.00 0.08 0.08 56 1022.8
20260503011555 45 199 0.9 4.3 0.00 0.08 0.08 58 1022.8
20260503010011 45 230 0.9 3.5 0.00 0.08 0.08 58 1022.7
20260503004601 45 213 0.0 0.0 0.00 0.10 0.08 57 1022.7
20260503003041 46 160 0.0 2.6 0.00 0.10 0.08 54 1022.6
20260503001628 46 203 0.9 2.6 0.00 0.10 0.08 56 1022.6
20260503000040 46 186 0.0 1.7 0.00 0.10 0.08 57 1022.6
20260502234629 46 189 0.9 1.7 0.00 0.10 0.08 56 1022.7
20260502233044 46 236 0.0 1.7 0.00 0.10 0.08 54 1022.6
20260502231511 47 205 0.9 1.7 0.00 0.10 0.08 54 1022.7
20260502230057 47 248 0.0 0.9 0.00 0.10 0.08 52 1022.7